[[{"header":{"parameterUnit":"m.s-1","parameterCategory":1,"la1":30.2991,"la2":30.254,"lo1":-89.0895,"lo2":-89.0444,"dy":0.0017,"dx":0.0017,"nx":28,"ny":28,"refTime":"2024-05-18T09:00:00:Z","depth":0,"parameterNumber":2,"parameterNumberName":"U-component_of_WINDS"},"data":[0,0,0,0,0,0,0,0,0,0,0,0,0,0,0,0,0,0,0,0,0,0,0,0,0,0,0,0,0,0,0,0,0,0,0,0,0,0,0,0,0,0,0,0,0,0,0,0,0,0,0,0,0,0,0,0,0,0,2.1402,2.1404,0,2.1545,2.1546,2.1548,2.1577,2.1576,2.1575,2.1574,2.1726,2.1731,2.1736,0,0,0,0,0,0,0,0,0,0,0,0,0,2.1163,2.1167,2.1402,2.1404,2.1406,2.1545,2.1547,2.1549,2.1577,2.1576,2.1575,2.1574,2.1724,2.173,2.1736,0,0,0,0,0,0,0,0,0,0,0,0,0,2.1282,2.1168,2.1402,2.1437,2.1441,2.1544,2.1547,2.1549,2.1578,2.1576,2.1574,2.1573,2.1722,2.1729,2.1737,2.1817,0,0,2.176,2.1763,0,0,0,0,0,0,0,0,2.1275,2.1291,2.143,2.1435,2.144,2.1541,2.1518,2.1639,2.1578,2.1526,2.1574,2.1572,2.1666,2.1678,2.1709,2.1824,2.183,2.1761,2.1765,2.1769,2.1771,0,0,0,0,0,0,0,2.1267,2.1285,2.1459,2.1432,2.1438,2.1448,2.1463,2.1541,2.1604,2.153,2.1533,2.1549,2.1669,2.1701,2.1712,2.1833,2.176,2.1767,2.1772,2.1775,2.2026,2.2028,0,0,0,0,0,0,2.1252,2.1278,2.1454,2.1463,2.1352,2.1454,2.147,2.1511,2.1603,2.1615,2.155,2.155,2.1689,2.1704,2.1718,2.1821,2.1769,2.1776,2.178,2.2024,2.2027,2.2029,0,0,0,0,0,0,2.1246,2.1267,2.1448,2.1371,2.1395,2.1459,2.1504,2.1514,2.1547,2.1618,2.163,2.1572,2.1688,2.1707,2.1793,2.1826,2.1779,2.1786,2.2022,2.2025,2.2028,2.2024,0,0,0,0,0,0,2.1239,2.1265,2.1294,2.1372,2.1399,2.1518,2.1506,2.1518,2.1559,2.156,2.1641,2.1653,2.1689,2.1781,2.18,2.1836,2.1792,2.2019,2.2023,2.2027,2.2022,2.2027,2.2031,0,0,0,0,0,2.1231,2.1287,2.1295,2.1316,2.1436,2.152,2.1536,2.1574,2.1562,2.1593,2.1639,2.1651,2.1819,2.179,2.1811,2.185,2.2017,2.2022,2.2027,2.2019,2.2026,2.2031,0,0,0,0,0,0,2.1212,2.1298,2.1307,2.139,2.1447,2.1524,2.1564,2.1579,2.1642,2.164,2.1687,2.1705,2.1788,2.1828,2.1793,2.1935,2.1918,2.1927,2.1905,2.1912,2.1917,2.1906,2.1798,0,0,0,0,0,2.1217,2.1276,2.1349,2.1415,2.1443,2.1499,2.1537,2.1562,2.1624,2.1648,2.1701,2.1762,2.183,2.1873,2.1939,2.2028,2.2049,2.2066,2.2071,2.2074,2.2082,2.2137,2.2146,2.2045,2.2045,2.2045,0,0,2.1229,2.1284,2.1318,2.1413,2.146,2.1523,2.1519,2.1585,2.1633,2.1659,2.1743,2.1784,2.1857,2.1945,2.1987,2.1981,2.2115,2.208,2.2083,2.2089,2.2142,2.2152,2.216,2.2048,2.2047,2.2047,0,0,2.1283,2.1329,2.1391,2.1439,2.151,2.1548,2.1563,2.1639,2.1667,2.1752,2.1774,2.1834,2.1947,2.1999,2.204,2.2119,2.2134,2.214,2.2165,2.2218,2.2226,2.2233,2.2264,2.2274,2.2147,2.2147,2.2147,0,2.1289,2.1382,2.1421,2.1487,2.1529,2.1556,2.1621,2.1666,2.1756,2.1787,2.1778,2.1925,2.1975,2.2078,2.2098,2.213,2.2151,2.213,2.2221,2.2229,2.2237,2.2267,2.2278,2.2148,2.2148,2.2148,2.2148,0,2.1388,2.1453,2.1494,2.158,2.1628,2.1693,2.1745,2.1789,2.1811,2.185,2.194,2.2001,2.2082,2.2109,2.213,2.2217,2.2211,2.2211,2.2196,2.2246,2.2275,2.2287,2.2148,2.2148,2.2148,2.2148,0,0,2.1431,2.154,2.1555,2.1596,2.1679,2.1731,2.18,2.1877,2.1916,2.1979,2.204,2.2138,2.214,2.2187,2.2216,2.2262,2.2325,2.2258,2.226,2.227,2.2428,2.2428,2.244,2.2335,2.2337,2.2339,2.2423,0,2.1496,2.1616,2.1655,2.1757,2.1819,2.1848,2.1908,2.1968,2.2008,2.2069,2.2115,2.2184,2.218,2.221,2.2256,2.2307,2.2357,2.2301,2.2395,2.2398,2.2377,2.2455,2.2454,2.253,2.2434,2.2436,2.2438,0,2.1587,2.1651,2.1758,2.1837,2.1865,2.1918,2.1995,2.2052,2.2122,2.2149,2.2203,2.2229,2.2306,2.2287,2.2396,2.2357,2.2399,2.243,2.2434,2.2445,2.2421,2.247,2.2554,2.2566,2.2456,2.2454,2.2453,0,2.1611,2.1724,2.1804,2.1838,2.1931,2.1968,2.201,2.2078,2.2124,2.2192,2.2223,2.23,2.2343,2.2404,2.2452,2.2433,2.2558,2.2542,2.2585,2.2584,2.261,2.2608,2.2704,2.2635,2.2635,2.2635,2.2634,0,2.168,2.1745,2.1816,2.1865,2.1941,2.1987,2.2061,2.2105,2.2166,2.2227,2.2257,2.2315,2.2374,2.2441,2.2479,2.2566,2.2585,2.2611,2.2621,2.2609,2.2606,2.2637,2.2633,2.2638,2.2637,2.2636,2.2636,0,2.1719,2.1768,2.1857,2.1939,2.1962,2.2014,2.2086,2.2137,2.2179,2.2256,2.2277,2.2345,2.2425,2.248,2.2583,2.2609,2.2704,2.2712,2.268,2.2685,2.2726,2.2722,2.2846,2.2867,2.2782,2.2783,2.2784,0,2.1759,2.181,2.1898,2.194,2.1981,2.2049,2.2096,2.2145,2.2194,2.228,2.2322,2.2404,2.2472,2.26,2.2661,2.2741,2.2752,2.2791,2.2765,2.2753,2.2756,2.2753,2.276,2.2795,2.2795,2.2796,2.2796,0,2.1828,2.1851,2.1916,2.1992,2.2047,2.2109,2.2172,2.2205,2.2267,2.2321,2.2402,2.2455,2.2561,2.2644,2.2731,2.2777,2.2799,2.2804,2.2819,2.2807,2.2787,2.2801,2.2692,2.2801,2.28,2.28,2.28,2.28,2.187,2.1918,2.1988,2.2061,2.2114,2.2173,2.2226,2.2275,2.2343,2.2432,2.2458,2.2545,2.2619,2.2738,2.2786,2.2857,2.2854,2.2875,2.288,2.2885,2.2886,2.2776,2.2873,2.2873,2.2873,2.2873,2.2873,0,2.1942,2.1989,2.2056,2.2143,2.2202,2.2215,2.2286,2.2336,2.241,2.2477,2.2544,2.264,2.2722,2.279,2.2876,2.292,2.2932,2.2941,2.2939,2.295,2.2883,2.2862,2.293,2.293,2.293,2.293,2.293,2.293,2.1986,2.2068,2.2101,2.2212,2.226,2.2342,2.2382,2.2439,2.2492,2.2598,2.2665,2.2709,2.2778,2.287,2.2947,2.2965,2.2997,2.3003,2.3024,2.2961,2.2954,2.2948,2.2929,2.3009,2.3009,2.3086,2.3087,2.3087]},{"header":{"parameterUnit":"m.s-1","parameterCategory":1,"la1":30.2991,"la2":30.254,"lo1":-89.0895,"lo2":-89.0444,"dy":0.0017,"dx":0.0017,"nx":28,"ny":28,"refTime":"2024-05-18T09:00:00:Z","depth":0,"parameterNumber":3,"parameterNumberName":"V-component_of_WINDS"},"data":[0,0,0,0,0,0,0,0,0,0,0,0,0,0,0,0,0,0,0,0,0,0,0,0,0,0,0,0,0,0,0,0,0,0,0,0,0,0,0,0,0,0,0,0,0,0,0,0,0,0,0,0,0,0,0,0,0,0,-6.0682,-6.0684,0,-6.0875,-6.0877,-6.0879,-6.0824,-6.082,-6.0816,-6.0813,-6.1011,-6.102,-6.1028,0,0,0,0,0,0,0,0,0,0,0,0,0,-6.027,-6.0278,-6.0682,-6.0684,-6.0687,-6.0875,-6.0877,-6.088,-6.0825,-6.082,-6.0815,-6.0811,-6.1008,-6.1018,-6.1029,0,0,0,0,0,0,0,0,0,0,0,0,0,-6.0455,-6.0281,-6.0681,-6.0682,-6.0684,-6.0874,-6.0877,-6.0881,-6.0826,-6.082,-6.0814,-6.0809,-6.1004,-6.1017,-6.1031,-6.1232,0,0,-6.1072,-6.1078,0,0,0,0,0,0,0,0,-6.0444,-6.047,-6.0679,-6.0682,-6.0685,-6.0819,-6.0805,-6.0998,-6.0828,-6.0772,-6.0813,-6.0806,-6.0952,-6.0969,-6.1019,-6.1241,-6.125,-6.1073,-6.1081,-6.1087,-6.1091,0,0,0,0,0,0,0,-6.0432,-6.0461,-6.0758,-6.0683,-6.0686,-6.0674,-6.0694,-6.0841,-6.0893,-6.0776,-6.0773,-6.0797,-6.0952,-6.1006,-6.1023,-6.1253,-6.1073,-6.1084,-6.1093,-6.1098,-6.1657,-6.1663,0,0,0,0,0,0,-6.0417,-6.0451,-6.0752,-6.0764,-6.0548,-6.0686,-6.0708,-6.0782,-6.0891,-6.0902,-6.0801,-6.0793,-6.0986,-6.1007,-6.103,-6.1276,-6.1087,-6.1099,-6.1107,-6.165,-6.1658,-6.1666,0,0,0,0,0,0,-6.0408,-6.0444,-6.0744,-6.0607,-6.0644,-6.07,-6.0783,-6.0789,-6.0842,-6.091,-6.0919,-6.0846,-6.0982,-6.1011,-6.1183,-6.1282,-6.1105,-6.1118,-6.1642,-6.1652,-6.1662,-6.1768,0,0,0,0,0,0,-6.0396,-6.0441,-6.0517,-6.0609,-6.0652,-6.0894,-6.0789,-6.0797,-6.0866,-6.0857,-6.0954,-6.0965,-6.0979,-6.1164,-6.1197,-6.1297,-6.1128,-6.1633,-6.1647,-6.1659,-6.1756,-6.178,-6.1801,0,0,0,0,0,-6.0382,-6.0538,-6.0521,-6.0557,-6.0747,-6.0899,-6.0924,-6.0937,-6.0874,-6.0951,-6.0996,-6.0962,-6.1266,-6.1182,-6.1219,-6.1324,-6.1627,-6.1643,-6.1658,-6.1745,-6.1775,-6.1801,0,0,0,0,0,0,-6.0454,-6.0549,-6.0532,-6.0722,-6.0803,-6.089,-6.0987,-6.0968,-6.1068,-6.1056,-6.1069,-6.1092,-6.1269,-6.1314,-6.1219,-6.1528,-6.1438,-6.1461,-6.1492,-6.1521,-6.1543,-6.1528,-6.1139,0,0,0,0,0,-6.0492,-6.0607,-6.0684,-6.0845,-6.0887,-6.0931,-6.0997,-6.1001,-6.1086,-6.112,-6.1176,-6.1261,-6.1376,-6.1451,-6.156,-6.1763,-6.1785,-6.1854,-6.1877,-6.1895,-6.1915,-6.2031,-6.2063,-6.1716,-6.1716,-6.1715,0,0,-6.0571,-6.0638,-6.0709,-6.0861,-6.0924,-6.1045,-6.096,-6.1089,-6.118,-6.1139,-6.1307,-6.1352,-6.1447,-6.1637,-6.1724,-6.168,-6.2017,-6.1915,-6.1929,-6.1939,-6.205,-6.2083,-6.2112,-6.1726,-6.1724,-6.1722,0,0,-6.0778,-6.0839,-6.0981,-6.1048,-6.1146,-6.1175,-6.121,-6.1301,-6.133,-6.1499,-6.1473,-6.1582,-6.1778,-6.1848,-6.191,-6.2151,-6.2125,-6.2186,-6.2305,-6.2417,-6.2445,-6.2469,-6.2558,-6.2589,-6.2206,-6.2206,-6.2207,0,-6.0864,-6.1044,-6.1057,-6.1191,-6.126,-6.1232,-6.1378,-6.1442,-6.1571,-6.162,-6.157,-6.182,-6.1882,-6.209,-6.215,-6.2199,-6.2242,-6.2174,-6.244,-6.2464,-6.2487,-6.2572,-6.2605,-6.2213,-6.2213,-6.2212,-6.2211,0,-6.1147,-6.1272,-6.1376,-6.1503,-6.1584,-6.1723,-6.176,-6.1841,-6.184,-6.1875,-6.205,-6.2124,-6.225,-6.23,-6.2299,-6.251,-6.2481,-6.2436,-6.2345,-6.2527,-6.2607,-6.264,-6.2223,-6.2221,-6.2219,-6.2217,0,0,-6.1399,-6.1536,-6.1574,-6.1634,-6.1743,-6.1841,-6.1981,-6.2106,-6.2176,-6.2268,-6.2388,-6.2558,-6.2519,-6.2589,-6.2597,-6.2695,-6.2886,-6.2638,-6.2641,-6.2683,-6.3128,-6.3162,-6.3199,-6.287,-6.2876,-6.2881,-6.312,0,-6.1616,-6.1862,-6.1881,-6.2104,-6.2222,-6.2201,-6.2324,-6.2405,-6.2444,-6.2552,-6.2594,-6.2716,-6.2653,-6.2696,-6.2793,-6.2842,-6.2975,-6.2825,-6.2983,-6.2989,-6.296,-6.324,-6.3275,-6.3497,-6.3151,-6.3157,-6.316,0,-6.19,-6.2003,-6.2238,-6.2336,-6.2387,-6.2496,-6.2615,-6.2718,-6.2812,-6.2834,-6.2916,-6.2911,-6.3059,-6.2964,-6.317,-6.3067,-6.3134,-6.3169,-6.3178,-6.3193,-6.3085,-6.3264,-6.3567,-6.3601,-6.3209,-6.3205,-6.3202,0,-6.2064,-6.2261,-6.2428,-6.248,-6.2597,-6.2676,-6.2729,-6.2817,-6.2893,-6.2998,-6.3047,-6.3167,-6.3233,-6.3328,-6.3358,-6.3285,-6.3564,-6.347,-6.3588,-6.3587,-6.3646,-6.3642,-6.3965,-6.3688,-6.3688,-6.3687,-6.3686,0,-6.2304,-6.2449,-6.2504,-6.2606,-6.277,-6.2793,-6.2955,-6.3003,-6.3084,-6.3198,-6.3187,-6.3294,-6.3327,-6.3442,-6.3466,-6.3635,-6.3664,-6.3688,-6.3692,-6.3689,-6.3686,-6.3732,-6.3718,-6.3696,-6.3694,-6.3692,-6.3691,0,-6.2512,-6.2555,-6.2736,-6.2835,-6.2863,-6.298,-6.3065,-6.3166,-6.3205,-6.335,-6.3386,-6.3447,-6.3582,-6.3622,-6.3783,-6.38,-6.3999,-6.3989,-6.3967,-6.3967,-6.4083,-6.4072,-6.4448,-6.45,-6.4187,-6.419,-6.4193,0,-6.2663,-6.2774,-6.2887,-6.2963,-6.302,-6.3142,-6.322,-6.3249,-6.3331,-6.3451,-6.3539,-6.3672,-6.378,-6.3997,-6.4057,-6.4182,-6.4176,-6.43,-6.4195,-6.419,-6.4181,-6.4174,-6.4187,-6.4319,-6.4322,-6.4325,-6.4327,0,-6.2926,-6.2943,-6.3056,-6.3179,-6.3273,-6.3371,-6.3464,-6.3528,-6.3571,-6.3665,-6.3803,-6.3887,-6.4055,-6.4189,-6.4317,-6.4373,-6.436,-6.436,-6.4395,-6.4392,-6.4376,-6.4389,-6.4022,-6.4351,-6.4349,-6.4347,-6.4346,-6.4345,-6.3111,-6.3211,-6.3308,-6.3436,-6.351,-6.36,-6.3701,-6.3755,-6.3871,-6.401,-6.402,-6.4171,-6.4269,-6.444,-6.4504,-6.4624,-6.4588,-6.4637,-6.465,-6.4662,-6.4672,-6.4357,-6.4647,-6.4647,-6.4646,-6.4646,-6.4645,0,-6.3376,-6.3438,-6.3556,-6.3689,-6.3792,-6.3771,-6.3876,-6.3963,-6.4096,-6.4188,-6.4296,-6.4459,-6.459,-6.4663,-6.4795,-6.4878,-6.4876,-6.4912,-6.4906,-6.4921,-6.4695,-6.4654,-6.4912,-6.4912,-6.4912,-6.4912,-6.4912,-6.4912,-6.3525,-6.3695,-6.3725,-6.3934,-6.3995,-6.4143,-6.4206,-6.429,-6.4365,-6.4546,-6.4656,-6.4703,-6.479,-6.4929,-6.5051,-6.5069,-6.5119,-6.516,-6.5175,-6.4963,-6.4936,-6.491,-6.4871,-6.5171,-6.5171,-6.5391,-6.5393,-6.5394]}]]